Miscellaneous Local Product
Issued by NWS Hastings, NE

Home | Current Version | Previous Version | Text Only | Print | Product List | Glossary On
Versions: 1 2 3 4 5 6 7 8 9 10 11 12 13 14 15 16 17 18 19 20 21 22 23 24 25 26 27 28 29 30 31 32 33 34 35 36 37 38 39 40 41 42 43 44 45 46 47 48 49 50
406
AXUS43 KGID 221702
MISGRI

GID CWA HOURLY WEATHER ROUNDUP
NATIONAL WEATHER SERVICE HASTINGS NE
1200 PM CDT FRI SEP 22 2017

NOTE: "FAIR" INDICATES FEW OR NO CLOUDS BELOW 12,000 FEET WITH NO
SIGNIFICANT WEATHER AND/OR OBSTRUCTIONS TO VISIBILITY.

...SOUTH CENTRAL NEBRASKA...

CITY           SKY/WX    TMP DP  RH WIND       PRES   REMARKS
GRAND ISLAND   SUNNY     89  66  46 S22G33    29.78S HX  91
HASTINGS       SUNNY     89  63  41 S16G28    29.80F HX  90
KEARNEY        SUNNY     91  63  39 S26G40    29.76S HX  92
ORD            SUNNY     86  62  44 S21G30    29.72F
YORK           SUNNY     88  66  48 S20       29.81F HX  90
AURORA         SUNNY     87  65  48 S20G28    29.79F
LEXINGTON      SUNNY     91  58  32 S23       29.75S
HOLDREGE       SUNNY     88  57  35 S28G38    29.78S
HEBRON         SUNNY     89  67  49 S14G25    29.84S HX  92

...NEBRASKA PANHANDLE...

CITY           SKY/WX    TMP DP  RH WIND       PRES   REMARKS
CHADRON        MOSUNNY   60  38  43 NW6       29.83F
ALLIANCE       SUNNY     64  44  48 VRB6      29.82F
SCOTTSBLUFF    SUNNY     60  41  49 CALM      29.84S
SIDNEY         SUNNY     63  43  48 N8        29.83F

...WESTERN AND NORTH CENTRAL NEBRASKA...

CITY           SKY/WX    TMP DP  RH WIND       PRES   REMARKS
VALENTINE      SUNNY     70  49  47 NW12      29.76R
AINSWORTH      SUNNY     69  51  53 NW14G20   29.76R
ONEILL         SUNNY     86  66  49 S23G31    29.71S
BROKEN BOW     SUNNY     88  61  40 S22G29    29.74S
IMPERIAL       SUNNY     80  40  23 SW13      29.78S
NORTH PLATTE   SUNNY     87  57  35 S14       29.73F

...EASTERN NEBRASKA...

CITY           SKY/WX    TMP DP  RH WIND       PRES   REMARKS
NORFOLK        SUNNY     88  68  51 S20G32    29.73F HX  91
SO SIOUX CITY  SUNNY     86  71  60 S21G28    29.79S HX  91
TEKAMAH        SUNNY     88  69  53 S20G25    29.82S HX  92
COLUMBUS       SUNNY     89  69  51 S13G22    29.79F HX  93
ALBION         SUNNY     88  69  52 S18G29    29.75F HX  92
OMAHA EPPLEY   MOSUNNY   88  70  55 S22G29    29.84F HX  93
OFFUTT AFB     SUNNY     88  70  56 SE14      29.85S HX  93
MILLARD        SUNNY     91  71  53 S12G17    29.84S HX  97
LINCOLN        SUNNY     90  68  48 S22G29    29.83S HX  94
NEBRASKA CITY  SUNNY     87  72  59 S17G25    29.88S HX  93
BEATRICE       SUNNY     90  69  50 S18G26    29.85F HX  94
FALLS CITY     SUNNY     87  70  56 S13G23    29.90F HX  92

...NORTHERN KANSAS...

CITY           SKY/WX    TMP DP  RH WIND       PRES   REMARKS
GOODLAND       MOSUNNY   86  48  26 S24G31    29.80S
HILL CITY      SUNNY     93  60  33 SW26G43   29.79F HX  93
NORTON         SUNNY     91  52  25 S23       29.77S
PHILLIPSBURG   SUNNY     93  54  26 S23G32    29.79S HX  91
SMITH CENTER   SUNNY     90  63  40 S22G29    29.81S HX  90
HAYS           SUNNY     87  64  46 S18G30    29.83S
RUSSELL        MOSUNNY   89  64  43 S17G29    29.83F HX  90
CONCORDIA      SUNNY     86  70  58 S20G29    29.85S HX  90
SALINA         SUNNY     92  68  45 S18G29    29.86F HX  96
TOPEKA         SUNNY     87  73  62 S14       29.94S HX  94



USA.gov is the U.S. government's official web portal to all federal, state and local government web resources and services.